Welcome to the New NWS' Forecast!
Most changes are behind the scenes, but click here for differences you might notice.

Regional Weather Roundup (RWR)

Issued by Gray - Portland, ME (GYX)

                            
000
ASUS41 KGYX 150705
RWRGYX
WEATHER ROUNDUP FOR MAINE AND NEW HAMPSHIRE
NATIONAL WEATHER SERVICE GRAY ME
300 AM EDT WED AUG 15 2018

MEZ002-005-006-010-012-015-018-020-021-024-026-027-029-150800-
MAINE
  
CITY           SKY/WX    TMP DP  RH WIND       PRES   REMARKS
PORTLAND       CLOUDY    69  69 100 CALM      29.81F                  
SANFORD        CLOUDY    69  68  96 CALM      29.82F                  
BAR HARBOR     FOG       67  67 100 S3        29.84F VSB 1/2          
WISCASSET      CLOUDY    69  69 100 CALM      29.83S FOG              
ROCKLAND       FOG       67  67 100 NE3       29.82F VSB 1/4          
FRYEBURG       CLOUDY    69  69 100 CALM      29.82F                  
LEWISTONAUBURN CLOUDY    68  68 100 CALM      29.81F FOG              
AUGUSTA        FOG       69  69 100 SE3       29.82F VSB 1/2          
WATERVILLE     CLOUDY    69  68  96 CALM      29.80F                  
BANGOR         CLOUDY    71  69  93 SW3       29.82F                  
GREENVILLE       N/A     67  67 100 CALM      29.83F                  
MILLINOCKET    CLOUDY    71  66  84 VRB3      29.83S                  
HOULTON        CLOUDY    70  68  93 SW7       29.79F                  
PRESQUE ISLE   CLOUDY    70  67  90 S6        29.79F                  
FRENCHVILLE    LGT RAIN  72  67  84 S6        29.77F                  
CARIBOU        CLOUDY    71  68  90 S8        29.77F                  
$$

NHZ002-005-008-009-011-012-014-150800-
NEW HAMPSHIRE
  
CITY           SKY/WX    TMP DP  RH WIND       PRES   REMARKS
PORTSMOUTH     CLOUDY    70  69  98 CALM      29.80F FOG              
ROCHESTER      CLOUDY    69  69 100 CALM      29.82F FOG              
MANCHESTER     NOT AVBL                                               
CONCORD        MOCLDY    68  67  96 CALM      29.82S                  
PLYMOUTH       CLOUDY    66  65  96 CALM      29.83S FOG              
BERLIN         FOG       62  62 100 CALM      29.85S VSB 1/4          
WHITEFIELD     MOCLDY    61  59  93 CALM      29.85S                  
JAFFREY        NOT AVBL                                               
LEBANON        MOCLDY    66  63  90 SE3       29.82F                  
MT WASHINGTON  MOCLDY    52  50  93 W3          N/A                   
$$

VTZ005-007-008-150800-
VERMONT
  
CITY           SKY/WX    TMP DP  RH WIND       PRES   REMARKS
ST JOHNSBURY     N/A     65  65 100 MISG      29.81F                  
MONTPELIER     FOG       65  65 100 CALM      29.87F VSB 1/4          
BURLINGTON     FAIR      70  65  84 S3        29.80S                  
$$

MAZ007-012-024-CTZ003-RIZ002-NYZ038-NYZ072-150800-
SOUTHERN NEW ENGLAND AND NY
  
CITY           SKY/WX    TMP DP  RH WIND       PRES   REMARKS
BOSTON         MOCLDY    71  68  90 SE3       29.82S                  
WORCESTER      CLOUDY    67  67 100 SW7       29.85S                  
NANTUCKET      FAIR      71  69  93 S9        29.85F                  
PROVIDENCE     FAIR      71  69  93 S6        29.84R                  
HARTFORD       MOCLDY    70  68  93 S5        29.81F                  
ALBANY         CLOUDY    70  65  84 W3        29.82F                  
NEW YORK CITY  MOCLDY    74  65  73 W13       29.83F                  
$$

ANZ081-ANZ082-ANZ150-NHZ014-MEZ023>029-150800-
COASTAL MARINE OBSERVATIONS
  
STATION/POSITION TIME  TEMP    WIND        PRES    WAVE
                       AIR SEA DIR/SP/G            HT/PER
                 (UTC) (F)     (DEG/KT/KT) (MB)    (FT/S)
MOUNT DESERT ROC 0600   65     150/ 11/ 11 1011.0F
MATINICUS ROCK   0600   67     190/ 14/ 15 1009.9F
ISLE OF SHOALS   0600   67      20/  4/  4 1009.5F
JEFFREYS LEDGE   0636      68                N/A     2/ 6
$$

.............KEY..............
   WCI - WIND CHILL
   TC  - TEMPERATURE IN CELSIUS
   VSB - VISIBILITY IN MILES
   HX  - HEAT INDEX
   FAIR- INDICATES FEW OR NO CLOUDS BELOW 12,000 FT, WITH NO 
         SIGNIFICANT WEATHER AND/OR OBSTRUCTIONS TO VISIBILITY.